Location: ????????
(55.8351°N, 38.7040°E)
Time: 09:59:22
(UTC+00:00)

MSX - Pass Details

Date: 14 April 2024
Orbit: 894 x 906 km, 99.0° (Epoch: 27 May)

Event Time Altitude Azimuth Distance (km) Brightness Sun altitude
Rises 00:19:44 0° 15° (NNE) 3,547 8.0 -15.3°
Reaches altitude 10° 00:22:11 10° 11° (NNE) 2,602 7.1 -15.1°
Maximum altitude 00:27:49 55° 296° (WNW) 1,079 4.1 -14.5°
Enters shadow 00:31:42 20° 226° (SW) 1,951 4.9 -14.1°
